Temperature
2 3 3 2 2 2 2 3 3 4 4 4 3 3 3 3 3 3 2 2 2 2 3 3 4 4 4 5 5 5 5 5 5 5 5 5 6 6 6 6 6 5 5 5
1 3 3 2 2 2 3 3 3 3 3 3 3 3 3 2 2 2 2 1 1 2 2 2 3 3 4 4 4 5 5 5 5 5 5 5 5 5 5 5 5 5 5 5
1 2 2 1 1 2 2 2 2 2 2 2 2 2 2 2 2 1 1 1 1 1 1 2 2 3 3 3 4 4 4 4 4 4 4 4 4 4 4 4 4 4 4 4
0 1 0 1 1 1 1 1 1 1 1 1 1 1 1 1 1 0 0 0 1 1 1 1 2 2 2 3 3 3 4 4 4 4 4 4 4 4 4 4 4 4 4 4
-0 0 1 1 1 0 -0 -0 0 0 1 1 1 1 1 1 1 0 -0 0 0 0 1 1 1 2 2 2 3 3 3 3 3 3 3 3 3 3 3 3 3 3 3 3
-1 -0 -0 -0 0 0 0 -0 -1 -1 -1 -0 -0 -1 -1 -0 -1 -1 -1 -0 -0 0 0 1 1 1 2 2 2 2 2 2 3 3 3 3 3 3 3 3 3 3 2 2
-1 -1 -1 -1 -0 0 -1 -1 -1 -1 -1 -1 -1 -2 -1 -1 -1 -1 -1 -1 -1 -0 -0 0 0 1 1 1 1 1 2 2 2 2 2 2 2 2 2 2 2 2 2 2
-2 -2 -2 -1 -1 -2 -2 -2 -2 -2 -2 -2 -2 -2 -2 -2 -2 -2 -2 -1 -1 -1 -0 -0 -0 0 0 0 0 1 1 1 1 1 1 1 1 1 2 2 2 1 1 1
-2 -2 -2 -2 -2 -2 -2 -2 -2 -2 -3 -3 -3 -3 -3 -3 -3 -3 -2 -2 -2 -2 -1 -1 -1 -1 -0 -0 -0 0 0 0 0 1 1 1 1 1 1 1 1 1 1 1
-3 -2 -2 -2 -2 -3 -3 -3 -3 -3 -3 -3 -4 -4 -4 -4 -3 -3 -3 -3 -3 -2 -2 -2 -1 -1 -1 -1 -1 -0 -0 -0 -0 -0 0 0 0 0 0 0 0 0 0 -0
-4 -3 -3 -2 -3 -3 -3 -3 -3 -4 -4 -4 -4 -4 -4 -4 -4 -4 -3 -3 -3 -3 -3 -2 -2 -2 -2 -1 -1 -1 -1 -1 -1 -1 -1 -0 -0 -0 -0 -0 -0 -0 -0 -0
-4 -4 -4 -4 -4 -4 -4 -4 -4 -4 -4 -4 -4 -4 -4 -4 -4 -4 -4 -4 -4 -3 -3 -3 -3 -2 -2 -2 -2 -1 -1 -1 -1 -1 -1 -1 -1 -1 -1 -1 -1 -1 -1 -1
-4 -4 -4 -4 -4 -4 -4 -5 -5 -5 -5 -5 -5 -5 -5 -4 -4 -4 -4 -4 -4 -4 -4 -3 -3 -3 -3 -2 -2 -2 -2 -2 -2 -1 -1 -1 -2 -2 -2 -2 -2 -2 -2 -2
-4 -4 -5 -5 -5 -5 -5 -5 -5 -5 -5 -5 -5 -5 -5 -5 -5 -5 -5 -5 -5 -4 -4 -4 -4 -3 -3 -3 -3 -2 -2 -2 -2 -2 -2 -2 -2 -2 -2 -2 -2 -2 -2 -3
-5 -5 -5 -5 -5 -5 -5 -5 -5 -5 -5 -5 -5 -5 -5 -5 -5 -5 -5 -5 -5 -5 -4 -4 -4 -4 -3 -3 -3 -3 -3 -2 -2 -2 -2 -3 -3 -3 -3 -3 -3 -3 -3 -3
-5 -5 -6 -6 -6 -6 -6 -6 -6 -6 -6 -6 -6 -6 -6 -5 -5 -5 -5 -5 -5 -5 -5 -4 -4 -4 -4 -3 -3 -3 -3 -3 -3 -3 -3 -3 -3 -3 -3 -3 -3 -3 -3 -3
-6 -6 -6 -6 -6 -6 -6 -6 -6 -6 -6 -6 -6 -6 -6 -6 -6 -6 -6 -6 -5 -5 -5 -5 -5 -4 -4 -4 -4 -3 -3 -3 -3 -3 -3 -3 -3 -4 -4 -4 -4 -4 -4 -4
-6 -6 -6 -6 -6 -6 -6 -6 -6 -6 -6 -6 -6 -6 -6 -6 -6 -6 -6 -6 -6 -6 -5 -5 -5 -5 -4 -4 -4 -4 -4 -4 -4 -4 -4 -4 -4 -4 -4 -4 -4 -4 -4 -5
-6 -6 -6 -6 -6 -6 -6 -6 -7 -7 -7 -7 -7 -7 -7 -7 -7 -6 -6 -6 -6 -6 -6 -6 -5 -5 -5 -5 -5 -5 -4 -4 -4 -5 -5 -5 -5 -5 -5 -5 -5 -5 -5 -5
-6 -6 -6 -6 -6 -6 -6 -7 -7 -7 -7 -7 -7 -7 -7 -7 -7 -7 -6 -6 -7 -7 -6 -6 -6 -6 -5 -5 -5 -5 -5 -5 -5 -5 -5 -5 -5 -5 -5 -5 -5 -5 -5 -5
-6 -6 -6 -6 -7 -7 -7 -7 -7 -7 -7 -7 -7 -7 -7 -7 -7 -7 -7 -7 -7 -7 -7 -7 -6 -6 -6 -6 -6 -6 -6 -6 -6 -6 -6 -6 -6 -6 -6 -6 -6 -6 -6 -6
-6 -7 -7 -7 -7 -7 -7 -7 -7 -7 -7 -7 -7 -7 -7 -7 -7 -7 -7 -7 -7 -7 -7 -7 -7 -7 -7 -7 -7 -6 -6 -6 -6 -6 -6 -6 -6 -6 -6 -6 -6 -6 -6 -6
-7 -7 -7 -7 -7 -7 -7 -8 -8 -8 -8 -8 -8 -8 -8 -8 -8 -7 -7 -8 -8 -8 -7 -7 -7 -7 -7 -7 -7 -7 -7 -7 -7 -7 -7 -7 -7 -7 -7 -7 -7 -6 -6 -6
-7 -7 -7 -8 -8 -8 -8 -8 -8 -8 -8 -8 -8 -8 -8 -8 -8 -8 -8 -8 -8 -8 -8 -8 -8 -7 -7 -7 -7 -7 -7 -7 -7 -7 -7 -7 -7 -7 -7 -7 -7 -7 -7 -7
-7 -7 -8 -8 -8 -8 -8 -8 -8 -8 -8 -8 -8 -8 -8 -8 -8 -8 -8 -8 -8 -8 -8 -8 -8 -8 -8 -7 -8 -7 -7 -7 -7 -8 -8 -8 -8 -7 -7 -7 -7 -7 -7 -7
-7 -8 -8 -8 -8 -8 -8 -8 -8 -8 -9 -9 -8 -9 -8 -8 -8 -8 -8 -8 -8 -8 -8 -8 -8 -8 -8 -8 -8 -8 -8 -8 -8 -8 -8 -8 -8 -8 -8 -8 -7 -7 -7 -7
-8 -8 -8 -8 -8 -8 -8 -9 -9 -9 -9 -9 -9 -9 -9 -9 -9 -9 -9 -8 -8 -8 -8 -8 -8 -8 -8 -8 -8 -8 -8 -8 -8 -8 -8 -8 -8 -8 -8 -8 -8 -7 -7 -7
Wind_Speed
5 6 3 2 3 3 4 4 3 2 2 2 3 2 2 3 3 4 4 5 5 5 5 4 4 3 2 1 2 3 5 6 6 6 6 6 5 5 5 5 5 4 4 4
4 4 2 2 3 3 4 4 4 3 4 4 4 4 4 3 3 4 4 4 5 4 4 4 4 3 3 1 2 3 5 6 6 6 6 6 5 5 5 4 4 4 4 4
2 3 3 2 2 2 2 2 2 4 4 4 4 4 5 4 4 3 4 4 4 3 3 3 3 3 3 1 1 3 5 6 6 6 6 5 6 5 5 4 4 4 4 4
2 2 2 1 2 2 2 2 2 3 4 5 5 4 3 3 3 3 4 4 3 3 3 3 3 3 3 2 2 3 5 5 6 6 6 5 5 5 5 4 4 4 4 3
1 2 3 0 3 3 2 3 4 4 5 7 5 3 2 5 6 4 4 4 3 3 2 2 2 2 2 3 3 4 4 5 5 6 6 6 5 4 4 4 4 3 4 3
2 2 2 2 4 5 2 2 6 7 5 6 5 3 3 6 7 6 5 4 4 3 2 2 2 3 3 3 4 4 3 4 5 5 5 5 5 4 3 4 4 3 3 3
3 3 1 4 6 4 0 4 7 7 6 5 3 3 4 6 6 6 5 5 4 3 3 3 2 3 4 4 3 3 3 4 5 5 5 5 4 4 4 4 4 3 3 3
2 2 3 4 4 2 3 5 6 6 6 5 5 4 5 5 5 6 6 5 5 4 4 4 3 3 4 4 4 4 4 4 5 5 4 5 5 4 4 4 4 3 3 3
2 2 1 2 2 3 4 5 5 5 5 5 4 5 5 5 5 5 5 5 5 4 5 5 5 4 4 4 4 5 5 5 5 5 5 5 5 4 4 3 3 3 3 2
3 3 2 2 3 4 5 5 5 5 4 4 4 4 4 4 4 4 5 5 4 5 5 5 5 4 4 4 4 5 6 5 5 5 5 5 4 4 3 3 3 3 2 2
4 4 4 3 5 6 6 6 5 4 4 3 3 3 3 3 3 4 4 4 4 4 4 4 4 4 4 4 4 5 5 5 5 4 5 5 5 4 3 3 3 3 2 2
3 1 2 4 4 5 5 5 5 4 5 4 3 2 3 3 3 4 4 4 4 5 4 4 4 4 4 4 4 5 5 4 4 4 4 4 4 5 6 4 5 5 3 2
3 3 3 4 4 4 4 4 4 3 3 4 4 3 3 3 3 4 4 4 4 4 4 4 4 4 4 4 4 4 4 4 3 3 4 4 3 3 3 4 5 5 4 4
2 2 3 2 2 3 3 3 3 3 3 3 3 3 3 4 4 4 3 3 4 4 4 4 4 4 4 4 4 4 4 4 3 3 3 3 3 2 2 2 2 2 2 3
1 1 2 2 2 2 2 2 2 3 3 3 3 3 3 3 3 3 3 3 4 4 4 4 4 4 4 4 4 4 3 3 3 3 2 2 2 2 2 2 2 1 1 2
2 2 2 1 2 2 2 1 1 2 2 2 3 3 3 3 3 4 4 4 4 4 4 4 4 4 4 3 3 3 3 4 3 2 2 2 2 2 2 2 1 1 1 1
1 2 2 2 2 2 1 1 1 1 1 1 2 2 3 3 3 4 4 4 4 4 3 3 3 3 3 3 3 2 2 3 3 2 2 2 2 2 1 1 1 0 0 1
2 2 1 1 1 1 2 2 2 2 2 1 1 2 2 2 2 3 3 3 4 4 4 4 3 4 4 4 3 2 2 2 2 2 2 1 1 1 1 1 0 0 1 1
1 1 0 0 1 1 1 1 1 1 1 1 1 1 2 2 2 2 3 4 4 4 4 4 5 5 4 3 3 2 3 3 2 2 2 2 2 1 1 1 0 1 1 1
0 0 0 0 1 1 1 1 1 1 1 1 1 2 2 2 2 2 3 3 2 2 2 3 3 3 3 3 3 2 2 2 2 2 1 1 1 1 1 1 1 1 1 1
1 0 1 1 1 1 1 1 1 1 1 1 2 1 1 2 2 2 2 2 3 3 3 4 3 3 2 2 3 2 2 2 2 1 1 1 1 1 1 1 1 1 1 1
1 1 1 1 1 1 1 1 1 1 1 2 2 2 2 2 2 2 2 1 2 3 3 2 2 3 3 3 2 2 2 2 1 1 1 1 1 1 1 1 1 2 2 2
1 1 1 1 1 1 1 1 1 1 1 1 1 1 0 0 1 1 1 2 2 3 2 2 2 3 3 3 2 2 2 2 1 1 1 1 1 1 1 1 1 2 2 2
2 2 1 1 1 1 0 0 1 1 1 0 0 0 0 0 1 1 1 1 2 3 2 2 3 3 3 2 2 2 2 1 1 1 1 1 1 1 1 1 2 2 2 3
2 2 2 2 2 1 1 1 1 1 1 0 0 0 0 0 0 1 1 1 1 2 2 3 4 4 3 2 2 1 1 1 0 1 1 1 1 1 1 2 2 2 2 3
2 2 2 2 2 1 1 1 1 1 1 1 0 1 1 1 1 1 1 1 1 2 2 2 2 2 2 2 2 1 1 2 2 2 1 1 1 2 2 2 3 3 3 3
2 2 2 1 1 1 1 1 1 1 1 1 0 0 1 1 1 1 1 1 1 1 1 1 2 1 1 1 1 1 1 1 1 2 2 2 2 2 2 3 3 3 3 4
Wind_Direction
293 294 272 273 280 262 237 257 257 284 301 320 6 14 14 16 26 36 26 19 14 10 7 10 13 14 14 76 127 141 141 140 142 139 134 130 129 130 129 131 135 133 132 129
292 281 284 293 293 270 257 266 271 294 305 341 1 18 22 12 20 15 9 10 7 8 9 2 3 3 2 30 116 134 138 137 134 132 132 131 131 128 125 125 126 124 126 121
287 316 331 283 290 265 278 301 266 272 295 342 346 346 346 346 358 0 360 356 355 354 351 346 348 353 350 6 98 121 132 132 132 134 133 134 135 129 130 129 123 119 117 113
287 316 245 230 42 2 306 320 325 329 334 337 337 335 341 347 11 4 351 350 351 353 351 351 355 356 355 32 104 121 128 131 131 132 133 132 130 130 131 129 129 126 122 117
275 271 262 310 19 8 328 310 359 347 340 341 343 338 359 20 17 4 356 353 353 350 351 1 6 10 26 62 97 114 121 128 130 132 133 132 131 132 131 127 126 127 126 124
281 272 260 340 353 331 309 283 4 350 331 333 351 329 322 360 2 0 8 8 4 13 22 21 22 37 57 77 88 99 113 124 127 131 134 135 136 132 124 125 126 124 122 123
262 259 264 352 335 345 19 298 331 337 333 331 328 306 322 344 353 1 8 11 16 37 40 29 33 60 74 77 82 89 100 108 117 122 124 125 119 117 120 119 112 108 107 101
257 249 261 1 13 23 312 322 333 341 345 344 344 348 350 354 357 4 13 17 19 36 39 36 45 71 79 74 73 83 93 102 106 110 116 115 112 113 118 120 116 111 105 94
244 243 314 8 353 338 334 327 336 342 349 353 345 341 345 351 358 9 15 15 20 38 40 40 42 56 73 67 79 86 93 96 100 101 103 110 116 117 120 122 122 117 110 103
275 271 316 335 343 345 338 329 334 341 343 341 334 334 341 352 5 12 16 18 23 38 43 38 37 44 54 69 81 92 94 91 93 98 98 94 95 103 109 113 113 110 103 99
258 291 317 330 354 346 343 344 344 350 346 336 337 338 348 0 10 17 18 17 26 35 39 34 37 44 47 60 79 89 91 89 87 89 96 90 85 83 92 89 114 118 122 119
259 293 275 294 328 339 338 338 342 353 357 0 3 355 1 12 19 23 25 26 33 38 37 34 41 45 49 55 76 90 91 87 89 96 98 95 93 80 74 87 79 71 74 86
255 300 283 282 318 343 337 340 352 3 2 3 9 17 22 26 27 29 30 36 38 37 34 36 47 47 46 57 72 83 91 88 88 93 97 98 99 106 96 71 69 66 59 51
270 297 287 301 318 332 339 358 13 14 15 17 19 26 35 37 35 33 30 34 40 42 38 40 50 45 36 51 69 77 82 86 90 94 99 103 105 104 107 104 82 52 45 37
300 287 262 293 319 341 355 11 20 13 20 24 27 30 37 37 32 26 29 37 44 47 41 42 47 39 34 50 67 76 83 87 84 87 92 100 104 104 102 95 90 62 29 15
296 280 260 277 301 316 339 345 348 345 5 16 23 26 32 40 37 35 34 36 47 45 37 38 41 36 37 54 70 74 83 89 86 93 95 98 101 102 101 100 94 77 19 344
262 273 271 274 288 303 303 307 313 321 354 14 16 26 40 48 45 38 32 33 42 41 34 39 42 39 40 51 67 79 84 84 78 84 98 109 109 110 115 119 115 89 319 323
219 237 249 249 268 301 322 348 359 0 360 3 30 46 45 47 44 33 30 36 41 38 32 35 46 48 51 52 60 76 82 84 84 90 93 96 101 107 115 119 108 338 336 340
215 215 237 288 288 282 324 342 348 0 6 26 58 55 42 40 41 39 38 41 38 30 19 31 39 44 48 53 57 70 81 81 75 70 78 82 66 68 72 74 41 351 336 338
166 151 127 48 42 60 14 357 14 20 18 52 71 60 44 33 42 46 45 38 18 11 16 27 36 40 43 51 54 69 78 82 81 72 69 70 67 52 36 24 14 353 344 338
202 169 122 103 65 52 43 31 57 38 25 63 84 70 41 28 34 41 45 24 5 23 33 35 38 39 43 50 50 68 77 80 79 77 77 71 57 28 18 14 356 341 338 331
200 188 175 147 112 53 34 55 69 60 54 65 69 68 57 35 24 28 24 7 358 16 25 29 33 38 44 46 55 67 74 75 72 68 62 51 40 17 1 355 343 333 331 325
199 190 179 172 167 128 55 58 79 95 94 92 93 87 76 353 5 28 355 359 19 17 22 27 32 33 36 44 57 60 66 64 57 47 39 29 15 357 343 332 326 329 326 318
185 176 167 152 129 122 150 231 161 134 146 164 155 182 186 52 13 7 354 354 12 20 27 25 28 31 33 45 53 55 54 51 41 25 17 14 4 347 332 319 317 321 317 316
176 168 160 160 170 191 199 168 146 151 150 137 103 73 96 123 147 345 9 21 19 25 22 15 22 27 32 41 42 42 36 14 347 347 345 342 335 328 316 312 312 309 311 314
176 181 188 191 190 183 174 166 163 160 148 132 68 39 55 70 85 51 40 36 34 28 23 13 10 16 24 26 23 17 7 346 341 342 342 334 327 317 310 309 309 309 312 312
168 170 164 159 165 167 165 163 162 166 159 158 169 82 81 73 72 64 49 34 24 25 22 13 17 23 20 10 5 360 356 341 328 325 326 324 317 310 308 305 305 308 310 309
Height
1467 1463 1462 1463 1464 1463 1463 1461 1460 1456 1456 1456 1456 1457 1456 1455 1454 1453 1453 1452 1451 1451 1450 1450 1450 1452 1453 1454 1455 1458 1460 1463 1466 1469 1472 1475 1478 1480 1483 1485 1487 1489 1490 1492
1467 1460 1460 1462 1462 1461 1460 1460 1459 1458 1460 1458 1457 1457 1456 1455 1454 1454 1453 1452 1452 1451 1450 1450 1450 1450 1451 1452 1454 1456 1458 1461 1464 1467 1470 1473 1476 1478 1480 1482 1485 1486 1488 1489
1470 1462 1462 1466 1464 1463 1462 1461 1462 1461 1462 1459 1458 1457 1457 1456 1455 1455 1454 1452 1451 1450 1450 1450 1449 1449 1450 1451 1452 1454 1457 1459 1462 1465 1468 1471 1474 1476 1478 1480 1482 1484 1486 1487
1472 1469 1473 1469 1463 1463 1462 1463 1462 1462 1461 1460 1459 1458 1457 1456 1455 1454 1453 1451 1450 1449 1449 1449 1449 1449 1449 1450 1451 1453 1455 1458 1461 1464 1466 1469 1472 1474 1476 1479 1481 1482 1483 1485
1475 1473 1467 1466 1465 1465 1466 1465 1463 1462 1461 1460 1459 1456 1456 1456 1455 1454 1452 1450 1449 1448 1447 1447 1448 1448 1448 1449 1450 1452 1454 1457 1460 1463 1465 1468 1470 1472 1475 1477 1479 1480 1482 1483
1476 1475 1471 1471 1467 1464 1466 1466 1465 1463 1462 1460 1459 1458 1457 1455 1454 1452 1451 1449 1448 1447 1446 1446 1447 1447 1447 1448 1449 1451 1453 1456 1459 1461 1464 1466 1469 1471 1473 1475 1477 1479 1480 1481
1478 1475 1473 1472 1467 1465 1471 1471 1467 1464 1462 1461 1461 1461 1458 1455 1453 1451 1450 1448 1447 1446 1446 1446 1446 1446 1447 1448 1449 1450 1453 1455 1458 1460 1463 1465 1467 1470 1472 1474 1476 1477 1479 1480
1479 1478 1478 1472 1469 1472 1473 1469 1467 1464 1462 1461 1459 1458 1456 1455 1453 1451 1449 1448 1447 1446 1445 1446 1446 1447 1447 1448 1449 1450 1452 1454 1457 1459 1462 1464 1466 1468 1470 1472 1474 1476 1477 1478
1479 1479 1474 1472 1472 1471 1470 1468 1466 1464 1462 1461 1459 1457 1456 1454 1452 1450 1449 1448 1447 1446 1445 1446 1446 1447 1447 1448 1449 1450 1452 1454 1456 1459 1461 1463 1465 1467 1469 1471 1473 1474 1475 1476
1476 1472 1472 1471 1470 1469 1468 1467 1465 1464 1462 1460 1458 1457 1455 1454 1452 1450 1449 1449 1448 1447 1446 1446 1447 1447 1448 1449 1450 1451 1452 1454 1456 1458 1461 1463 1465 1467 1468 1470 1471 1473 1474 1474
1475 1472 1471 1469 1469 1468 1466 1465 1463 1462 1461 1459 1457 1456 1455 1453 1452 1451 1450 1449 1448 1448 1447 1447 1448 1448 1449 1450 1451 1451 1453 1455 1457 1459 1461 1462 1464 1466 1468 1469 1470 1471 1472 1473
1474 1472 1472 1470 1468 1467 1465 1464 1462 1461 1459 1458 1457 1456 1454 1453 1452 1451 1450 1449 1449 1448 1448 1448 1448 1449 1450 1451 1452 1452 1454 1455 1457 1459 1461 1462 1464 1465 1467 1469 1470 1471 1471 1472
1470 1469 1469 1467 1466 1465 1464 1463 1461 1460 1458 1457 1456 1455 1454 1452 1452 1451 1450 1450 1449 1449 1449 1449 1449 1449 1450 1452 1453 1454 1455 1456 1458 1460 1461 1462 1464 1465 1466 1468 1469 1470 1470 1471
1467 1467 1466 1465 1465 1464 1462 1461 1460 1459 1458 1457 1456 1455 1454 1453 1452 1451 1451 1450 1450 1449 1449 1449 1449 1450 1451 1452 1453 1454 1455 1457 1458 1460 1461 1462 1463 1464 1465 1466 1467 1468 1469 1469
1465 1464 1464 1463 1462 1462 1461 1460 1459 1458 1457 1456 1456 1455 1454 1453 1452 1451 1451 1450 1450 1449 1449 1449 1449 1450 1451 1452 1453 1454 1455 1457 1458 1459 1461 1462 1463 1464 1464 1465 1465 1466 1467 1467
1462 1462 1462 1461 1460 1460 1459 1459 1458 1457 1457 1456 1455 1455 1454 1453 1453 1452 1451 1450 1450 1449 1449 1449 1449 1450 1451 1452 1453 1454 1455 1457 1458 1459 1460 1461 1462 1463 1463 1464 1464 1464 1465 1465
1460 1459 1459 1459 1458 1458 1458 1458 1457 1456 1456 1455 1455 1454 1453 1453 1452 1451 1451 1451 1450 1450 1450 1450 1450 1450 1451 1451 1452 1453 1455 1456 1457 1458 1459 1460 1461 1461 1462 1462 1463 1463 1463 1463
1458 1458 1457 1457 1457 1456 1456 1456 1456 1455 1455 1455 1454 1453 1453 1452 1452 1451 1451 1451 1450 1450 1450 1450 1450 1450 1451 1451 1452 1453 1454 1455 1456 1457 1458 1459 1459 1460 1461 1461 1461 1461 1461 1462
1455 1455 1455 1455 1455 1455 1455 1454 1454 1454 1454 1453 1453 1452 1452 1452 1452 1451 1451 1451 1450 1450 1450 1450 1450 1450 1451 1451 1452 1453 1454 1455 1456 1456 1457 1458 1459 1459 1459 1459 1459 1460 1460 1460
1453 1453 1453 1453 1453 1453 1453 1453 1453 1453 1453 1452 1452 1451 1451 1451 1451 1451 1451 1450 1451 1451 1451 1451 1451 1451 1451 1452 1452 1453 1453 1454 1455 1456 1456 1457 1457 1458 1458 1458 1458 1458 1458 1458
1451 1451 1452 1452 1452 1452 1452 1452 1451 1451 1451 1451 1451 1451 1451 1451 1451 1451 1450 1450 1451 1451 1451 1451 1451 1451 1452 1452 1452 1453 1453 1454 1455 1455 1456 1456 1456 1456 1456 1457 1457 1457 1456 1456
1449 1449 1450 1450 1450 1450 1450 1450 1450 1450 1450 1450 1450 1450 1450 1450 1450 1450 1450 1451 1451 1451 1451 1451 1451 1452 1452 1452 1452 1453 1453 1454 1454 1454 1455 1455 1455 1455 1455 1455 1455 1455 1455 1454
1448 1448 1448 1448 1448 1448 1449 1449 1449 1449 1449 1449 1449 1450 1450 1450 1450 1450 1450 1451 1451 1451 1451 1451 1451 1451 1452 1452 1452 1452 1453 1453 1453 1454 1454 1454 1454 1454 1454 1454 1453 1453 1453 1452
1446 1446 1446 1446 1447 1447 1447 1448 1448 1448 1448 1448 1449 1449 1449 1449 1449 1450 1450 1450 1450 1450 1450 1451 1451 1451 1451 1451 1452 1452 1452 1452 1452 1452 1453 1453 1453 1453 1452 1452 1452 1451 1451 1451
1444 1444 1444 1444 1445 1445 1446 1446 1446 1447 1447 1447 1448 1448 1448 1449 1449 1449 1449 1450 1450 1450 1450 1450 1450 1450 1450 1451 1451 1451 1451 1451 1451 1451 1451 1451 1451 1451 1451 1450 1450 1449 1449 1449
1442 1442 1442 1443 1443 1444 1444 1445 1445 1445 1446 1446 1446 1447 1447 1448 1448 1449 1449 1449 1449 1450 1450 1450 1450 1450 1450 1450 1450 1450 1450 1450 1450 1450 1450 1449 1449 1449 1449 1448 1448 1448 1447 1447
1439 1440 1440 1441 1441 1442 1443 1443 1444 1444 1445 1445 1446 1446 1447 1447 1447 1448 1448 1448 1449 1449 1449 1449 1449 1449 1449 1449 1449 1449 1449 1448 1448 1448 1448 1448 1447 1447 1447 1446 1446 1446 1445 1445